| time (UTC) | temp C | wind direction | speed KPH | gust KPH | rain 1hr cm | rain 24hr cm | rain mn cm | humidity % | barometer mb |
| 20260504214533 | 24 | 257 | 1.6 | 11.3 | 0.00 | 0.00 | 0.00 | 41 | 1010.2 |
| 20260504213028 | 23 | 210 | 3.2 | 11.3 | 0.00 | 0.00 | 0.00 | 39 | 1010.2 |
| 20260504211536 | 23 | 255 | 3.2 | 8.0 | 0.00 | 0.00 | 0.00 | 39 | 1010.3 |
| 20260504210040 | 23 | 252 | 3.2 | 17.7 | 0.00 | 0.00 | 0.00 | 39 | 1010.2 |
| 20260504204532 | 23 | 266 | 4.8 | 9.7 | 0.00 | 0.00 | 0.00 | 40 | 1010.3 |
| 20260504203049 | 23 | 256 | 3.2 | 11.3 | 0.00 | 0.00 | 0.00 | 40 | 1010.3 |
| 20260504201532 | 23 | 253 | 3.2 | 11.3 | 0.00 | 0.00 | 0.00 | 40 | 1010.7 |
| 20260504200033 | 23 | 261 | 4.8 | 14.5 | 0.00 | 0.00 | 0.00 | 37 | 1011.0 |
| 20260504194533 | 23 | 18 | 4.8 | 17.7 | 0.00 | 0.00 | 0.00 | 40 | 1011.2 |
| 20260504193031 | 23 | 289 | 4.8 | 11.3 | 0.00 | 0.00 | 0.00 | 39 | 1011.5 |
| 20260504191530 | 22 | 283 | 4.8 | 14.5 | 0.00 | 0.00 | 0.00 | 39 | 1011.6 |
| 20260504190030 | 23 | 68 | 1.6 | 11.3 | 0.00 | 0.00 | 0.00 | 40 | 1011.6 |
| 20260504184534 | 22 | 165 | 6.4 | 11.3 | 0.00 | 0.00 | 0.00 | 39 | 1011.7 |
| 20260504183034 | 22 | 298 | 3.2 | 11.3 | 0.00 | 0.00 | 0.00 | 40 | 1011.9 |
| 20260504181530 | 22 | 309 | 4.8 | 14.5 | 0.00 | 0.00 | 0.00 | 39 | 1012.2 |
| 20260504180032 | 22 | 267 | 3.2 | 12.9 | 0.00 | 0.00 | 0.00 | 41 | 1012.3 |
| 20260504174532 | 22 | 272 | 3.2 | 11.3 | 0.00 | 0.00 | 0.00 | 40 | 1012.4 |
| 20260504173035 | 22 | 259 | 3.2 | 8.0 | 0.00 | 0.00 | 0.00 | 38 | 1012.6 |
| 20260504171531 | 21 | 252 | 3.2 | 12.9 | 0.00 | 0.00 | 0.00 | 43 | 1013.0 |
| 20260504081534 | 6 | 0 | 0.0 | 0.0 | 0.00 | 0.00 | 0.00 | 86 | 1015.6 |
| 20260504044533 | 7 | 0 | 0.0 | 1.6 | 0.00 | 0.00 | 0.00 | 73 | 1015.7 |
| 20260504043032 | 7 | 0 | 0.0 | 0.0 | 0.00 | 0.00 | 0.00 | 74 | 1015.5 |
| 20260504041532 | 7 | 0 | 0.0 | 0.0 | 0.00 | 0.00 | 0.00 | 73 | 1015.4 |
| 20260504040033 | 7 | 0 | 0.0 | 1.6 | 0.00 | 0.00 | 0.00 | 74 | 1015.3 |
| 20260504034533 | 7 | 0 | 0.0 | 0.0 | 0.00 | 0.00 | 0.00 | 73 | 1015.2 |
| 20260504033038 | 6 | 0 | 0.0 | 0.0 | 0.00 | 0.00 | 0.00 | 74 | 1014.9 |
| 20260504031533 | 6 | 0 | 0.0 | 0.0 | 0.00 | 0.00 | 0.00 | 71 | 1015.0 |
| 20260504030032 | 7 | 0 | 0.0 | 0.0 | 0.00 | 0.00 | 0.00 | 70 | 1014.8 |
| 20260504024532 | 7 | 0 | 0.0 | 0.0 | 0.00 | 0.00 | 0.00 | 70 | 1014.8 |
| 20260504023031 | 7 | 0 | 0.0 | 0.0 | 0.00 | 0.00 | 0.00 | 68 | 1014.9 |
| 20260504021534 | 7 | 0 | 0.0 | 1.6 | 0.00 | 0.00 | 0.00 | 70 | 1014.9 |
| 20260504020032 | 7 | 0 | 0.0 | 0.0 | 0.00 | 0.00 | 0.00 | 67 | 1014.9 |
| 20260504014545 | 7 | 0 | 0.0 | 0.0 | 0.00 | 0.00 | 0.00 | 66 | 1014.9 |
| 20260504013034 | 8 | 0 | 0.0 | 0.0 | 0.00 | 0.00 | 0.00 | 65 | 1014.8 |
| 20260504011530 | 8 | 0 | 0.0 | 0.0 | 0.00 | 0.00 | 0.00 | 63 | 1014.6 |
| 20260504010028 | 8 | 0 | 0.0 | 0.0 | 0.00 | 0.00 | 0.00 | 62 | 1014.5 |
| 20260504004533 | 9 | 0 | 0.0 | 0.0 | 0.00 | 0.00 | 0.00 | 60 | 1014.4 |
| 20260504003032 | 10 | 0 | 0.0 | 0.0 | 0.00 | 0.00 | 0.00 | 56 | 1014.3 |
| 20260504001537 | 11 | 0 | 0.0 | 0.0 | 0.00 | 0.00 | 0.00 | 52 | 1014.2 |
| 20260504000039 | 12 | 0 | 0.0 | 0.0 | 0.00 | 0.00 | 0.00 | 50 | 1014.0 |
| 20260503234532 | 12 | 0 | 0.0 | 0.0 | 0.00 | 0.00 | 0.00 | 50 | 1013.8 |
| 20260503233032 | 13 | 0 | 0.0 | 0.0 | 0.00 | 0.00 | 0.00 | 46 | 1013.7 |
| 20260503231541 | 14 | 252 | 0.0 | 3.2 | 0.00 | 0.00 | 0.00 | 43 | 1013.6 |
| 20260503230033 | 15 | 0 | 0.0 | 4.8 | 0.00 | 0.00 | 0.00 | 41 | 1013.7 |
| 20260503224536 | 15 | 13 | 1.6 | 6.4 | 0.00 | 0.00 | 0.00 | 38 | 1013.6 |
| 20260503223031 | 16 | 219 | 1.6 | 11.3 | 0.00 | 0.00 | 0.00 | 38 | 1013.6 |
| 20260503221537 | 16 | 348 | 1.6 | 12.9 | 0.00 | 0.00 | 0.00 | 37 | 1013.6 |
| 20260503220032 | 16 | 191 | 1.6 | 16.1 | 0.00 | 0.00 | 0.00 | 35 | 1013.6 |